Location: Montjean
(48.0167°N, 0.9667°W)
Time: 21:52:44
(UTC+02:00)

ISS - Visible Passes

Search period start: 13 May 2021 00:00
Search period end: 23 May 2021 00:00
Orbit: 417 x 422 km, 51.6° (Epoch: 13 May)

Date Brightness Start Highest point End Pass type
(mag) Time Alt. Az. Time Alt. Az. Time Alt. Az.
13 May -2.2 02:05:02 33° NE 02:05:02 33° NE 02:07:09 10° ENE visible
13 May -2.7 03:37:57 11° WNW 03:41:00 46° N 03:44:16 10° E visible
13 May -3.8 05:14:35 10° WNW 05:17:57 71° SSW 05:21:19 10° ESE visible
14 May -1.5 01:18:38 19° ENE 01:18:38 19° ENE 01:19:42 10° ENE visible
14 May -2.6 02:51:31 20° WNW 02:53:28 43° N 02:56:43 10° ENE visible
14 May -3.7 04:27:08 10° WNW 04:30:31 84° NNE 04:33:54 10° ESE visible
14 May -2.5 22:49:49 10° S 22:52:22 20° SE 22:54:58 10° E visible
15 May -3.8 00:25:29 10° WSW 00:28:52 86° NNW 00:32:15 10° ENE visible
15 May -2.6 02:02:40 10° WNW 02:05:55 43° N 02:09:10 10° ENE visible
15 May -3.4 03:39:41 10° WNW 03:43:03 64° NNE 03:46:25 10° E visible
15 May -3.0 05:16:41 10° W 05:19:44 32° SW 05:22:47 10° SSE visible
15 May -3.9 23:38:05 10° SW 23:41:26 68° SSE 23:44:48 10° ENE visible
16 May -2.7 01:15:07 10° W 01:18:23 46° N 01:21:40 10° ENE visible
16 May -3.0 02:52:14 10° WNW 02:55:33 52° NNE 02:58:52 10° E visible
16 May -3.6 04:29:06 10° WNW 04:32:22 48° SSW 04:35:39 10° SE visible
16 May -3.5 22:50:48 10° SW 22:54:02 46° SSE 22:57:17 10° ENE visible
17 May -3.0 00:27:33 10° W 00:30:51 53° NNW 00:34:10 10° ENE visible
17 May -2.7 02:04:45 10° WNW 02:08:01 46° N 02:11:18 10° E visible
17 May -3.9 03:41:37 10° WNW 03:45:00 70° SSW 03:48:21 10° ESE visible
17 May -2.0 05:19:27 10° WSW 05:21:18 14° SW 05:23:09 10° S visible
17 May -3.4 23:40:00 10° W 23:43:21 65° NNW 23:46:43 10° ENE visible
18 May -2.5 01:17:14 10° WNW 01:20:28 43° N 01:22:54 16° ENE visible
18 May -2.1 02:54:09 10° WNW 02:55:48 26° WNW 02:55:48 26° WNW visible
18 May -3.7 22:52:30 10° WSW 22:55:52 86° NNW 22:59:15 10° ENE visible
19 May -2.5 00:29:40 10° WNW 00:32:56 43° N 00:36:11 10° ENE visible
19 May -3.0 02:06:42 10° WNW 02:09:25 50° NW 02:09:25 50° NW visible
19 May -2.7 23:42:07 10° W 23:45:23 46° N 23:48:39 10° ENE visible
20 May -3.0 01:19:13 10° WNW 01:22:32 52° NNE 01:23:14 43° NE visible
20 May -1.0 02:56:06 10° WNW 02:56:10 10° WNW 02:56:10 10° WNW visible
20 May -2.9 22:54:32 10° W 22:57:50 53° NNW 23:01:10 10° ENE visible
21 May -2.7 00:31:44 10° WNW 00:35:00 46° N 00:37:08 19° ENE visible
21 May -1.9 02:08:35 10° WNW 02:10:04 24° WNW 02:10:04 24° WNW visible
21 May -2.6 23:44:12 10° WNW 23:47:27 43° N 23:50:42 10° ENE visible
22 May -3.5 01:21:08 10° WNW 01:24:02 63° WNW 01:24:02 63° WNW visible
22 May -2.5 22:56:38 10° WNW 22:59:53 43° N 23:03:08 10° ENE visible
